Hourly Weather Roundup
Issued by NWS Central Illinois

Current Version | Previous Version | Text Only | Print | Product List | Glossary On
Versions: 1 2 3 4 5 6 7 8 9 10 11 12 13 14 15 16 17 18 19 20 21 22 23 24 25 26 27 28 29 30 31 32 33 34 35 36 37 38 39 40 41 42 43 44 45 46 47 48 49 50
000
NZUS43 KILX 070210
HWRILX

Area Weather Roundup
National Weather Service Lincoln IL
800 PM CST SAT MAR 06 2021

NOTE:  "FAIR" indicates few or no clouds below 12,000 feet, with
       no sigificant weather and/or obstructions to visibility.


CITY           SKY/WX    TMP DP  RH WIND       PRES   REMARKS
Bloomington    CLEAR     39  29  67 NE7       30.31R WCI  34
Champaign      CLEAR     39  27  62 N5        30.30R
Danville       CLEAR     40  28  60 N3        30.31S
Decatur        CLEAR     38  27  64 E3        30.30R
Effingham      CLEAR     39  29  67 CALM      30.32S
Flora          CLEAR     39  30  70 SW3       30.31R
Galesburg      CLEAR     37  26  65 E3        30.30R
Jacksonville   CLEAR     42  25  50 CALM      30.30R
Lacon          CLEAR     36  30  79 CALM      30.31R
Lawrenceville  CLEAR     43  28  55 W3        30.31S
Litchfield     CLEAR     41  31  66 S5        30.31R
$$


CITY           SKY/WX    TMP DP  RH WIND       PRES   REMARKS
Lincoln        CLEAR     39  26  59 CALM      30.30R
Macomb         CLEAR     44  29  54 CALM      30.30S
Mattoon        CLEAR     40  30  67 CALM      30.29R
Mt Carmel AP   CLEAR     40  29  64 CALM      30.31S
Olney-Noble AP CLEAR     40  29  63 CALM      30.32R
Paris AP       CLEAR     34  32  92 CALM      30.31R
Peoria         CLEAR     43  26  51 NE6       30.30R
Pontiac        CLEAR     36  29  78 NE8       30.32R WCI  29
Rantoul        CLEAR     40  29  65 N6        30.30S
Robinson       CLEAR     33  28  80 CALM      30.32S
Springfield    CLEAR     42  24  49 CALM      30.29R
Taylorville    CLEAR     43  28  56 CALM      30.30R
$$

...REGIONAL REPORTS...


CITY           SKY/WX    TMP DP  RH WIND       PRES   REMARKS
Chicago O`Hare CLEAR     34  24  67 E5        30.31S WCI  30
Kankakee       CLEAR     34  28  80 NE7       30.33R WCI  28
La Salle         N/A     38  32  77 CALM      30.32R
Moline         CLEAR     35  29  78 E6        30.29R WCI  30
Mount Sterling CLEAR     43  24  48 CALM      30.28S
Mount Vernon   CLEAR     36  31  82 NE3       30.32R
Pittsfield     CLEAR     45  26  46 CALM      30.30S
Quincy         CLEAR     46  25  43 SE6       30.28R
Rockford       CLEAR     33  21  61 CALM      30.33S
$$


CITY           SKY/WX    TMP DP  RH WIND       PRES   REMARKS
Burlington     CLEAR     42  28  57 E5        30.27R
Cedar Rapids   CLEAR     33  27  78 E9        30.26S WCI  25
Des Moines     CLEAR     48  35  60 E9        30.21S
Kirksville     CLEAR     47  37  68 SE7       30.25R
Ottumwa        CLEAR     43  34  70 E8        30.24R
St Louis       PTCLDY    46  26  45 SE5       30.30R
$$


CITY           SKY/WX    TMP DP  RH WIND       PRES   REMARKS
Terre Haute    CLOUDY    40  29  64 CALM      30.30R
Evansville     CLEAR     42  24  49 CALM      30.32R
Indianapolis   CLOUDY    43  23  45 CALM      30.29S
Lafayette      CLEAR     38  25  59 N5        30.29S WCI  34
Madison        CLEAR     34  19  54 S3        30.29S
Milwaukee      CLEAR     31  25  78 SE5       30.31F WCI  26
$$





USA.gov is the U.S. government's official web portal to all federal, state and local government web resources and services.